Location: Cabeza de los Veneras
(40.2000°N, 5.2000°W)
Time: 11:13:44
(UTC+00:00)

BlueWalker 3 - Pass Details

Date: 01 July 2024
Orbit: 480 x 491 km, 53.2° (Epoch: 22 July)

Event Time Altitude Azimuth Distance (km) Brightness Sun altitude
Rises 22:44:41 0° 313° (NW) 2,541 6.7 -22.6°
Reaches altitude 10° 22:46:55 10° 320° (NW) 1,658 5.6 -22.8°
Maximum altitude 22:50:31 45° 34° (NE) 663 2.7 -23.1°
Enters shadow 22:50:37 45° 40° (NE) 665 2.6 -23.1°
